Location: L�tisburg
(47.3947°N, 9.0820°E)
Time: 00:40:49
(UTC+00:00)

Cosmos 1470 Rocket - Pass Details

Date: 03 March 2021
Orbit: 602 x 635 km, 82.5° (Epoch: 12 April)

Event Time Altitude Azimuth Distance (km) Brightness Sun altitude
Rises 18:35:16 0° 195° (SSW) 2,917 7.1 -14.9°
Reaches altitude 10° 18:37:31 10° 198° (SSW) 2,012 6.3 -15.3°
Maximum altitude 18:41:57 67° 280° (W) 690 4.0 -16.0°
Drops below altitude 10° 18:46:25 10° 4° (N) 2,015 6.2 -16.8°
Sets 18:48:40 0° 7° (N) 2,922 7.0 -17.1°
